Weather History for Denver, CO

Change the Weather History Date:

Wednesday, March 20, 2013

  Actual Average (KDEN) Record (KDEN)
Temperature  
Mean Temperature 40 °F 42 °F  
Max Temperature 59 °F 56 °F 80 °F (1907)
Min Temperature 21 °F 28 °F 1 °F (1965)
Degree Days  
Heating Degree Days 25 23  
Month to date heating degree days 520  
Since 1 July heating degree days 4959  
Cooling Degree Days 0 0  
Month to date cooling degree days 0  
Year to date cooling degree days 0  
Moisture  
Dew Point 21 °F    
Average Humidity 67    
Maximum Humidity 93    
Minimum Humidity 16    
Precipitation  
Precipitation 0.00 in 0.03 in 1.56 in (1905)
Month to date precipitation 0.51  
Year to date precipitation 1.29  
Snow  
Snow 0.00 in - - ()
Month to date snowfall  
Since 1 July snowfall  
Snow Depth -    
Sea Level Pressure  
Sea Level Pressure 30.07 in    
Wind  
Wind Speed 5 mph (South)    
Max Wind Speed 12 mph    
Max Gust Speed -    
Visibility 10 miles    
Events      
T = Trace of Precipitation, MM = Missing Value Source: NWS Daily Summary

Daily Weather History Graph

Daily Weather History Graph

Search for Another Location

Airport:

Trip Planner

Search our weather history database for the weather conditions in past years. The results will help you decide how hot, cold, wet, or windy it might be!

Date:

Astronomy

Mar. 20, 2013 Rise Set
Actual Time 7:01 AM MDT 7:10 PM MDT
Civil Twilight 6:34 AM MDT 7:37 PM MDT
Nautical Twilight 6:02 AM MDT 8:09 PM MDT
Astronomical Twilight 5:30 AM MDT 8:41 PM MDT
Moon 12:48 PM MDT (3/20) 2:41 AM MDT (3/20)
Length of Visible Light 13h 03m
Length of Day
12h 09m
First Quarter, 60% of the Moon is Illuminated
Mar 20
First Quarter
Mar 27
Full
Apr 2
Last Quarter
Apr 10
New
Apr 18
First Quarter

Hourly Weather History & Observations

Time (MDT) Temp. Windchill Dew Point Humidity Pressure Visibility Wind Dir Wind Speed Gust Speed Precip Events Conditions
12:17 AM 26.6 °F 22.6 °F 19.4 °F 74% 30.33 in 10.0 mi West 3.5 mph - N/A   Clear
12:37 AM 26.6 °F 21.2 °F 19.4 °F 74% 30.33 in 10.0 mi WSW 4.6 mph - N/A   Clear
12:57 AM 26.6 °F 22.6 °F 21.2 °F 80% 30.33 in 10.0 mi SW 3.5 mph - N/A   Clear
1:16 AM 26.6 °F 22.6 °F 19.4 °F 74% 30.31 in 10.0 mi SSW 3.5 mph - N/A   Clear
1:37 AM 23.0 °F - 19.4 °F 86% 30.30 in 10.0 mi Calm Calm - N/A   Clear
1:57 AM 23.0 °F 15.8 °F 19.4 °F 86% 30.28 in 10.0 mi SSW 5.8 mph - N/A   Clear
2:17 AM 23.0 °F 18.4 °F 19.4 °F 86% 30.27 in 10.0 mi South 3.5 mph - N/A   Clear
2:37 AM 23.0 °F 15.8 °F 19.4 °F 86% 30.27 in 10.0 mi South 5.8 mph - N/A   Clear
2:57 AM 23.0 °F 15.8 °F 19.4 °F 86% 30.27 in 10.0 mi South 5.8 mph - N/A   Clear
3:17 AM 23.0 °F 17.0 °F 19.4 °F 86% 30.26 in 10.0 mi South 4.6 mph - N/A   Clear
3:37 AM 23.0 °F 15.8 °F 19.4 °F 86% 30.24 in 10.0 mi SSE 5.8 mph - N/A   Clear
3:57 AM 23.0 °F 18.4 °F 19.4 °F 86% 30.23 in 10.0 mi South 3.5 mph - N/A   Clear
4:17 AM 23.0 °F 15.8 °F 19.4 °F 86% 30.22 in 10.0 mi SSE 5.8 mph - N/A   Clear
4:37 AM 23.0 °F 14.7 °F 19.4 °F 86% 30.21 in 10.0 mi SE 6.9 mph - N/A   Clear
4:57 AM 24.8 °F 16.1 °F 21.2 °F 86% 30.20 in 10.0 mi SSE 8.1 mph - N/A   Clear
5:17 AM 24.8 °F 15.3 °F 21.2 °F 86% 30.20 in 10.0 mi SSE 9.2 mph - N/A   Clear
5:37 AM 24.8 °F 14.0 °F 21.2 °F 86% 30.19 in 10.0 mi SE 11.5 mph - N/A   Clear
5:57 AM 24.8 °F 15.3 °F 19.4 °F 80% 30.18 in 10.0 mi SSE 9.2 mph - N/A   Clear
6:17 AM 23.0 °F 13.1 °F 19.4 °F 86% 30.18 in 10.0 mi SSE 9.2 mph - N/A   Clear
6:37 AM 23.0 °F 13.9 °F 19.4 °F 86% 30.17 in 10.0 mi SSE 8.1 mph - N/A   Clear
6:57 AM 21.2 °F 12.6 °F 17.6 °F 86% 30.16 in 10.0 mi SSE 6.9 mph - N/A   Clear
6:58 AM 21.2 °F 11.7 °F 19.4 °F 93% 30.16 in 10.0 mi SSE 8.1 mph - N/A   Clear
7:50 AM 28.4 °F 24.6 °F 19.4 °F 69% 30.14 in 50.0 mi SW 3.5 mph - N/A   Scattered Clouds
8:50 AM 32.0 °F 25.6 °F 23.0 °F 69% 30.13 in 50.0 mi WSW 6.9 mph - N/A   Mostly Cloudy
9:47 AM 33.8 °F 28.6 °F 23.0 °F 65% 30.10 in 50.0 mi West 5.8 mph - N/A   Mostly Cloudy
10:55 AM 37.4 °F - 21.2 °F 52% 30.06 in 50.0 mi Calm Calm - N/A   Mostly Cloudy
12:47 PM 46.4 °F 44.3 °F 24.8 °F 43% 29.97 in 50.0 mi NE 4.6 mph - N/A   Mostly Cloudy
12:58 PM 44.6 °F - 23.0 °F 43% 30.00 in 50.0 mi Calm Calm - N/A   Mostly Cloudy
1:50 PM 55.4 °F - 21.2 °F 26% 29.91 in 50.0 mi ENE 6.9 mph - N/A   Mostly Cloudy
2:47 PM 59.0 °F - 12.2 °F 16% 29.87 in 50.0 mi Calm Calm - N/A   Mostly Cloudy
3:48 PM 59.0 °F - 12.2 °F 16% 29.85 in 50.0 mi East 9.2 mph - N/A   Overcast
4:47 PM 57.2 °F - 14.0 °F 18% 29.83 in 50.0 mi NE 8.1 mph - N/A   Overcast
6:50 PM 51.8 °F - 23.0 °F 33% 29.80 in 50.0 mi Calm Calm - N/A   Overcast
7:50 PM 46.4 °F 41.9 °F 24.8 °F 43% 29.80 in 50.0 mi NW 9.2 mph - N/A   Overcast
8:50 PM 41.0 °F - 26.6 °F 57% 29.80 in 50.0 mi Calm Calm - N/A   Overcast
9:18 PM 42.8 °F 40.1 °F 26.6 °F 53% 29.79 in 10.0 mi West 4.6 mph - N/A   Clear
9:38 PM 42.8 °F 40.1 °F 26.6 °F 53% 29.78 in 10.0 mi WSW 4.6 mph - N/A   Clear
9:57 PM 41.0 °F 38.0 °F 28.4 °F 61% 29.77 in 10.0 mi SSW 4.6 mph - N/A   Clear
10:16 PM 39.2 °F 37.0 °F 28.4 °F 65% 29.77 in 10.0 mi South 3.5 mph - N/A   Clear
10:37 PM 41.0 °F - 28.4 °F 61% 29.77 in 10.0 mi Calm Calm - N/A   Clear
10:56 PM 37.4 °F 34.9 °F 28.4 °F 70% 29.77 in 10.0 mi South 3.5 mph - N/A   Clear
11:37 PM 37.4 °F 32.8 °F 28.4 °F 70% 29.75 in 10.0 mi South 5.8 mph - N/A   Clear